Powrót do katalogu

M-5 DEB

AktywnyHEO
NORAD 27489·DEBRIS·🇯🇵 Japan

Wystrzelony Feb 12, 1997 z Uchinoura Space Center

Loading…

Następne Przeloty (najbliższe 24 godziny)

TLE

ŚwieżeSource: Space-Track

Epoka: Sep 12, 2026, 15:41 UTC

1 27489U 97005G   26255.65400696  .00015100  00000-0  10360-2 0  9996
2 27489  31.4360 105.8400 4497735 131.2661 327.2094  6.54145614121586

Śledź M-5 DEB w czasie rzeczywistym z AllMySat

Download on the App Store